Year,Month,Day,Hour,Minute,Value (Times are PST for temperature in C)
2011,05,22,00,00,10.60
2011,05,22,00,01,10.60
2011,05,22,00,02,10.60
2011,05,22,00,03,10.60
2011,05,22,00,04,10.60
2011,05,22,00,05,10.60
2011,05,22,00,06,10.60
2011,05,22,00,07,10.60
2011,05,22,00,08,10.60
2011,05,22,00,09,10.60
2011,05,22,00,10,10.50
2011,05,22,00,11,10.40
2011,05,22,00,12,10.40
2011,05,22,00,13,10.40
2011,05,22,00,14,10.40
2011,05,22,00,15,10.40
2011,05,22,00,16,10.40
2011,05,22,00,17,10.40
2011,05,22,00,18,10.40
2011,05,22,00,19,10.40
2011,05,22,00,20,10.40
2011,05,22,00,21,10.40
2011,05,22,00,22,10.40
2011,05,22,00,23,10.40
2011,05,22,00,24,10.40
2011,05,22,00,25,10.40
2011,05,22,00,26,10.40
2011,05,22,00,27,10.40
2011,05,22,00,28,10.40
2011,05,22,00,29,10.40
2011,05,22,00,30,10.40
2011,05,22,00,31,10.40
2011,05,22,00,32,10.40
2011,05,22,00,33,10.40
2011,05,22,00,34,10.40
2011,05,22,00,35,10.40
2011,05,22,00,36,10.40
2011,05,22,00,37,10.40
2011,05,22,00,38,10.40
2011,05,22,00,39,10.40
2011,05,22,00,40,10.40
2011,05,22,00,41,10.40
2011,05,22,00,42,10.40
2011,05,22,00,43,10.40
2011,05,22,00,44,10.40
2011,05,22,00,45,10.40
2011,05,22,00,46,10.40
2011,05,22,00,47,10.40
2011,05,22,00,48,10.40
2011,05,22,00,49,10.40
2011,05,22,00,50,10.40
2011,05,22,00,51,10.40
2011,05,22,00,52,10.40
2011,05,22,00,53,10.40
2011,05,22,00,54,10.30
2011,05,22,00,55,10.30
2011,05,22,00,56,10.30
2011,05,22,00,57,10.30
2011,05,22,00,58,10.30
2011,05,22,00,59,10.30
2011,05,22,01,00,10.30
2011,05,22,01,01,10.30
2011,05,22,01,02,10.30
2011,05,22,01,03,10.30
2011,05,22,01,04,10.30
2011,05,22,01,05,10.30
2011,05,22,01,06,10.30
2011,05,22,01,07,10.20
2011,05,22,01,08,10.20
2011,05,22,01,09,10.20
2011,05,22,01,10,10.20
2011,05,22,01,11,10.20
2011,05,22,01,12,10.20
2011,05,22,01,13,10.20
2011,05,22,01,14,10.20
2011,05,22,01,15,10.20
2011,05,22,01,16,10.20
2011,05,22,01,17,10.20
2011,05,22,01,18,10.20
2011,05,22,01,19,10.10
2011,05,22,01,20,10.10
2011,05,22,01,21,10.10
2011,05,22,01,22,10.10
2011,05,22,01,23,10.10
2011,05,22,01,24,10.10
2011,05,22,01,25,10.10
2011,05,22,01,26,10.10
2011,05,22,01,27,10.10
2011,05,22,01,28,10.10
2011,05,22,01,29,10.10
2011,05,22,01,30,10.10
2011,05,22,01,31,10.10
2011,05,22,01,32,10.10
2011,05,22,01,33,10.10
2011,05,22,01,34,10.10
2011,05,22,01,35,10.10
2011,05,22,01,36,10.10
2011,05,22,01,37,10.10
2011,05,22,01,38,10.10
2011,05,22,01,39,10.10
2011,05,22,01,40,10.10
2011,05,22,01,41,10.10
2011,05,22,01,42,10.10
2011,05,22,01,43,10.10
2011,05,22,01,44,10.10
2011,05,22,01,45,10.10
2011,05,22,01,46,10.10
2011,05,22,01,47,10.10
2011,05,22,01,48,10.10
2011,05,22,01,49,10.10
2011,05,22,01,50,10.10
2011,05,22,01,51,10.10
2011,05,22,01,52,10.10
2011,05,22,01,53,10.10
2011,05,22,01,54,10.10
2011,05,22,01,55,10.10
2011,05,22,01,56,10.10
2011,05,22,01,57,10.10
2011,05,22,01,58,10.10
2011,05,22,01,59,10.10
2011,05,22,02,00,10.10
2011,05,22,02,01,10.10
2011,05,22,02,02,10.10
2011,05,22,02,03,10.10
2011,05,22,02,04,10.10
2011,05,22,02,05,10.10
2011,05,22,02,06,10.10
2011,05,22,02,07,10.10
2011,05,22,02,08,10.10
2011,05,22,02,09,10.10
2011,05,22,02,10,10.10
2011,05,22,02,11,10.10
2011,05,22,02,12,10.10
2011,05,22,02,13,10.10
2011,05,22,02,14,10.10
2011,05,22,02,15,10.10
2011,05,22,02,16,10.10
2011,05,22,02,17,10.10
2011,05,22,02,18,10.10
2011,05,22,02,19,10.10
2011,05,22,02,20,10.00
2011,05,22,02,21,9.90
2011,05,22,02,22,9.90
2011,05,22,02,23,9.90
2011,05,22,02,24,9.90
2011,05,22,02,25,9.90
2011,05,22,02,26,9.90
2011,05,22,02,27,9.90
2011,05,22,02,28,9.90
2011,05,22,02,29,9.90
2011,05,22,02,30,9.80
2011,05,22,02,31,9.80
2011,05,22,02,32,9.80
2011,05,22,02,33,9.80
2011,05,22,02,34,9.70
2011,05,22,02,35,9.70
2011,05,22,02,36,9.70
2011,05,22,02,37,9.70
2011,05,22,02,38,9.70
2011,05,22,02,39,9.70
2011,05,22,02,40,9.70
2011,05,22,02,41,9.70
2011,05,22,02,42,9.60
2011,05,22,02,43,9.60
2011,05,22,02,44,9.60
2011,05,22,02,45,9.60
2011,05,22,02,46,9.60
2011,05,22,02,47,9.60
2011,05,22,02,48,9.60
2011,05,22,02,49,9.60
2011,05,22,02,50,9.50
2011,05,22,02,51,9.50
2011,05,22,02,52,9.50
2011,05,22,02,53,9.50
2011,05,22,02,54,9.50
2011,05,22,02,55,9.50
2011,05,22,02,56,9.50
2011,05,22,02,57,9.50
2011,05,22,02,58,9.50
2011,05,22,02,59,9.50
2011,05,22,03,00,9.50
2011,05,22,03,01,9.50
2011,05,22,03,02,9.50
2011,05,22,03,03,9.50
2011,05,22,03,04,9.50
2011,05,22,03,05,9.50
2011,05,22,03,06,9.50
2011,05,22,03,07,9.50
2011,05,22,03,08,9.50
2011,05,22,03,09,9.50
2011,05,22,03,10,9.50
2011,05,22,03,11,9.60
2011,05,22,03,12,9.60
2011,05,22,03,13,9.60
2011,05,22,03,14,9.60
2011,05,22,03,15,9.60
2011,05,22,03,16,9.60
2011,05,22,03,17,9.60
2011,05,22,03,18,9.60
2011,05,22,03,19,9.60
2011,05,22,03,20,9.60
2011,05,22,03,21,9.70
2011,05,22,03,22,9.70
2011,05,22,03,23,9.70
2011,05,22,03,24,9.70
2011,05,22,03,25,9.70
2011,05,22,03,26,9.70
2011,05,22,03,27,9.70
2011,05,22,03,28,9.70
2011,05,22,03,29,9.70
2011,05,22,03,30,9.70
2011,05,22,03,31,9.70
2011,05,22,03,32,9.70
2011,05,22,03,33,9.70
2011,05,22,03,34,9.70
2011,05,22,03,35,9.70
2011,05,22,03,36,9.70
2011,05,22,03,37,9.70
2011,05,22,03,38,9.70
2011,05,22,03,39,9.70
2011,05,22,03,40,9.70
2011,05,22,03,41,9.70
2011,05,22,03,42,9.70
2011,05,22,03,43,9.70
2011,05,22,03,44,9.70
2011,05,22,03,45,9.70
2011,05,22,03,46,9.70
2011,05,22,03,47,9.70
2011,05,22,03,48,9.70
2011,05,22,03,49,9.70
2011,05,22,03,50,9.70
2011,05,22,03,51,9.70
2011,05,22,03,52,9.70
2011,05,22,03,53,9.70
2011,05,22,03,54,9.70
2011,05,22,03,55,9.70
2011,05,22,03,56,9.70
2011,05,22,03,57,9.70
2011,05,22,03,58,9.70
2011,05,22,03,59,9.70
2011,05,22,04,00,9.70
2011,05,22,04,01,9.70
2011,05,22,04,02,9.70
2011,05,22,04,03,9.70
2011,05,22,04,04,9.70
2011,05,22,04,05,9.70
2011,05,22,04,06,9.70
2011,05,22,04,07,9.70
2011,05,22,04,08,9.70
2011,05,22,04,09,9.70
2011,05,22,04,10,9.70
2011,05,22,04,11,9.80
2011,05,22,04,12,9.80
2011,05,22,04,13,9.80
2011,05,22,04,14,9.80
2011,05,22,04,15,9.80
2011,05,22,04,16,9.80
2011,05,22,04,17,9.80
2011,05,22,04,18,9.80
2011,05,22,04,19,9.70
2011,05,22,04,20,9.70
2011,05,22,04,21,9.70
2011,05,22,04,22,9.70
2011,05,22,04,23,9.70
2011,05,22,04,24,9.70
2011,05,22,04,25,9.70
2011,05,22,04,26,9.70
2011,05,22,04,27,9.70
2011,05,22,04,28,9.70
2011,05,22,04,29,9.70
2011,05,22,04,30,9.70
2011,05,22,04,31,9.70
2011,05,22,04,32,9.70
2011,05,22,04,33,9.70
2011,05,22,04,34,9.70
2011,05,22,04,35,9.70
2011,05,22,04,36,9.70
2011,05,22,04,37,9.70
2011,05,22,04,38,9.70
2011,05,22,04,39,9.70
2011,05,22,04,40,9.70
2011,05,22,04,41,9.70
2011,05,22,04,42,9.70
2011,05,22,04,43,9.70
2011,05,22,04,44,9.70
2011,05,22,04,45,9.70
2011,05,22,04,46,9.70
2011,05,22,04,47,9.70
2011,05,22,04,48,9.70
2011,05,22,04,49,9.80
2011,05,22,04,50,9.80
2011,05,22,04,51,9.80
2011,05,22,04,52,9.80
2011,05,22,04,53,9.80
2011,05,22,04,54,9.80
2011,05,22,04,55,9.80
2011,05,22,04,56,9.80
2011,05,22,04,57,9.80
2011,05,22,04,58,9.80
2011,05,22,04,59,9.80
2011,05,22,05,00,9.80
2011,05,22,05,01,9.80
2011,05,22,05,02,9.80
2011,05,22,05,03,9.70
2011,05,22,05,04,9.70
2011,05,22,05,05,9.70
2011,05,22,05,06,9.70
2011,05,22,05,07,9.70
2011,05,22,05,08,9.70
2011,05,22,05,09,9.70
2011,05,22,05,10,9.70
2011,05,22,05,11,9.70
2011,05,22,05,12,9.70
2011,05,22,05,13,9.70
2011,05,22,05,14,9.70
2011,05,22,05,15,9.70
2011,05,22,05,16,9.70
2011,05,22,05,17,9.70
2011,05,22,05,18,9.70
2011,05,22,05,19,9.70
2011,05,22,05,20,9.70
2011,05,22,05,21,9.70
2011,05,22,05,22,9.70
2011,05,22,05,23,9.70
2011,05,22,05,24,9.70
2011,05,22,05,25,9.70
2011,05,22,05,26,9.70
2011,05,22,05,27,9.70
2011,05,22,05,28,9.80
2011,05,22,05,29,9.80
2011,05,22,05,30,9.80
2011,05,22,05,31,9.80
2011,05,22,05,32,9.80
2011,05,22,05,33,9.80
2011,05,22,05,34,9.90
2011,05,22,05,35,9.90
2011,05,22,05,36,9.90
2011,05,22,05,37,9.90
2011,05,22,05,38,9.90
2011,05,22,05,39,9.90
2011,05,22,05,40,9.90
2011,05,22,05,41,9.90
2011,05,22,05,42,9.90
2011,05,22,05,43,9.90
2011,05,22,05,44,9.90
2011,05,22,05,45,9.90
2011,05,22,05,46,9.90
2011,05,22,05,47,9.90
2011,05,22,05,48,9.80
2011,05,22,05,49,9.80
2011,05,22,05,50,9.80
2011,05,22,05,51,9.80
2011,05,22,05,52,9.90
2011,05,22,05,53,9.90
2011,05,22,05,54,9.90
2011,05,22,05,55,9.90
2011,05,22,05,56,9.90
2011,05,22,05,57,9.90
2011,05,22,05,58,9.90
2011,05,22,05,59,9.90
2011,05,22,06,00,9.90
2011,05,22,06,01,9.90
2011,05,22,06,02,9.90
2011,05,22,06,03,9.90
2011,05,22,06,04,9.90
2011,05,22,06,05,9.90
2011,05,22,06,06,9.90
2011,05,22,06,07,9.90
2011,05,22,06,08,9.90
2011,05,22,06,09,9.90
2011,05,22,06,10,9.90
2011,05,22,06,11,9.90
2011,05,22,06,12,9.90
2011,05,22,06,13,9.90
2011,05,22,06,14,9.90
2011,05,22,06,15,10.00
2011,05,22,06,16,10.10
2011,05,22,06,17,10.10
2011,05,22,06,18,10.00
2011,05,22,06,19,9.90
2011,05,22,06,20,9.90
2011,05,22,06,21,10.00
2011,05,22,06,22,10.10
2011,05,22,06,23,10.10
2011,05,22,06,24,10.10
2011,05,22,06,25,10.10
2011,05,22,06,26,10.10
2011,05,22,06,27,10.10
2011,05,22,06,28,10.10
2011,05,22,06,29,10.10
2011,05,22,06,30,10.10
2011,05,22,06,31,10.10
2011,05,22,06,32,10.10
2011,05,22,06,33,10.10
2011,05,22,06,34,10.10
2011,05,22,06,35,10.10
2011,05,22,06,36,10.10
2011,05,22,06,37,10.10
2011,05,22,06,38,10.10
2011,05,22,06,39,10.10
2011,05,22,06,40,10.10
2011,05,22,06,41,10.10
2011,05,22,06,42,10.10
2011,05,22,06,43,10.10
2011,05,22,06,44,10.10
2011,05,22,06,45,10.10
2011,05,22,06,46,10.10
2011,05,22,06,47,10.10
2011,05,22,06,48,10.10
2011,05,22,06,49,10.10
2011,05,22,06,50,10.10
2011,05,22,06,51,10.10
2011,05,22,06,52,10.10
2011,05,22,06,53,10.10
2011,05,22,06,54,10.10
2011,05,22,06,55,10.00
2011,05,22,06,56,10.10
2011,05,22,06,57,10.10
2011,05,22,06,58,10.10
2011,05,22,06,59,10.10
2011,05,22,07,00,10.10
2011,05,22,07,01,10.10
2011,05,22,07,02,10.10
2011,05,22,07,03,10.10
2011,05,22,07,04,10.10
2011,05,22,07,05,10.10
2011,05,22,07,06,10.10
2011,05,22,07,07,10.10
2011,05,22,07,08,10.10
2011,05,22,07,09,10.10
2011,05,22,07,10,10.10
2011,05,22,07,11,10.10
2011,05,22,07,12,10.10
2011,05,22,07,13,10.10
2011,05,22,07,14,10.10
2011,05,22,07,15,10.10
2011,05,22,07,16,10.10
2011,05,22,07,17,10.10
2011,05,22,07,18,10.20
2011,05,22,07,19,10.20
2011,05,22,07,20,10.20
2011,05,22,07,21,10.20
2011,05,22,07,22,10.20
2011,05,22,07,23,10.20
2011,05,22,07,24,10.20
2011,05,22,07,25,10.30
2011,05,22,07,26,10.30
2011,05,22,07,27,10.30
2011,05,22,07,28,10.30
2011,05,22,07,29,10.30
2011,05,22,07,30,10.30
2011,05,22,07,31,10.30
2011,05,22,07,32,10.30
2011,05,22,07,33,10.30
2011,05,22,07,34,10.30
2011,05,22,07,35,10.30
2011,05,22,07,36,10.30
2011,05,22,07,37,10.30
2011,05,22,07,38,10.30
2011,05,22,07,39,10.30
2011,05,22,07,40,10.40
2011,05,22,07,41,10.40
2011,05,22,07,42,10.40
2011,05,22,07,43,10.40
2011,05,22,07,44,10.40
2011,05,22,07,45,10.40
2011,05,22,07,46,10.40
2011,05,22,07,47,10.40
2011,05,22,07,48,10.40
2011,05,22,07,49,10.40
2011,05,22,07,50,10.40
2011,05,22,07,51,10.40
2011,05,22,07,52,10.40
2011,05,22,07,53,10.40
2011,05,22,07,54,10.40
2011,05,22,07,55,10.50
2011,05,22,07,56,10.60
2011,05,22,07,57,10.60
2011,05,22,07,58,10.60
2011,05,22,07,59,10.60
2011,05,22,08,00,10.60
2011,05,22,08,01,10.60
2011,05,22,08,02,10.60
2011,05,22,08,03,10.60
2011,05,22,08,04,10.60
2011,05,22,08,05,10.60
2011,05,22,08,06,10.60
2011,05,22,08,07,10.60
2011,05,22,08,08,10.60
2011,05,22,08,09,10.60
2011,05,22,08,10,10.60
2011,05,22,08,11,10.60
2011,05,22,08,12,10.60
2011,05,22,08,13,10.60
2011,05,22,08,14,10.60
2011,05,22,08,15,10.60
2011,05,22,08,16,10.60
2011,05,22,08,17,10.60
2011,05,22,08,18,10.60
2011,05,22,08,19,10.60
2011,05,22,08,20,10.60
2011,05,22,08,21,10.70
2011,05,22,08,22,10.70
2011,05,22,08,23,10.80
2011,05,22,08,24,10.80
2011,05,22,08,25,10.80
2011,05,22,08,26,10.80
2011,05,22,08,27,10.70
2011,05,22,08,28,10.70
2011,05,22,08,29,10.70
2011,05,22,08,30,10.70
2011,05,22,08,31,10.70
2011,05,22,08,32,10.70
2011,05,22,08,33,10.70
2011,05,22,08,34,10.70
2011,05,22,08,35,10.70
2011,05,22,08,36,10.70
2011,05,22,08,37,10.70
2011,05,22,08,38,10.80
2011,05,22,08,39,10.80
2011,05,22,08,40,10.80
2011,05,22,08,41,10.80
2011,05,22,08,42,10.80
2011,05,22,08,43,10.80
2011,05,22,08,44,10.90
2011,05,22,08,45,10.80
2011,05,22,08,46,10.80
2011,05,22,08,47,10.90
2011,05,22,08,48,10.90
2011,05,22,08,49,10.90
2011,05,22,08,50,10.90
2011,05,22,08,51,10.90
2011,05,22,08,52,10.90
2011,05,22,08,53,10.90
2011,05,22,08,54,10.90
2011,05,22,08,55,10.90
2011,05,22,08,56,10.90
2011,05,22,08,57,10.90
2011,05,22,08,58,10.90
2011,05,22,08,59,11.00
2011,05,22,09,00,11.10
2011,05,22,09,01,11.10
2011,05,22,09,02,11.10
2011,05,22,09,03,11.10
2011,05,22,09,04,11.10
2011,05,22,09,05,11.10
2011,05,22,09,06,11.20
2011,05,22,09,07,11.20
2011,05,22,09,08,11.20
2011,05,22,09,09,11.30
2011,05,22,09,10,11.30
2011,05,22,09,11,11.40
2011,05,22,09,12,11.40
2011,05,22,09,13,11.40
2011,05,22,09,14,11.40
2011,05,22,09,15,11.40
2011,05,22,09,16,11.40
2011,05,22,09,17,11.40
2011,05,22,09,18,11.40
2011,05,22,09,19,11.40
2011,05,22,09,20,11.40
2011,05,22,09,21,11.40
2011,05,22,09,22,11.40
2011,05,22,09,23,11.40
2011,05,22,12,12,13.30
2011,05,22,12,13,13.40
2011,05,22,12,14,13.40
2011,05,22,12,15,13.50
2011,05,22,12,16,13.50
2011,05,22,12,17,13.40
2011,05,22,12,18,13.40
2011,05,22,12,19,13.30
2011,05,22,12,20,13.30
2011,05,22,12,21,13.40
2011,05,22,12,22,13.50
2011,05,22,12,23,13.50
2011,05,22,12,24,13.70
2011,05,22,12,25,13.80
2011,05,22,12,26,13.90
2011,05,22,12,27,14.00
2011,05,22,12,28,14.10
2011,05,22,12,29,14.20
2011,05,22,12,30,14.30
2011,05,22,12,31,14.30
2011,05,22,12,32,14.30
2011,05,22,12,33,14.30
2011,05,22,12,34,14.20
2011,05,22,12,35,14.20
2011,05,22,12,36,14.20
2011,05,22,12,37,14.30
2011,05,22,12,38,14.40
2011,05,22,12,39,14.50
2011,05,22,12,40,14.50
2011,05,22,12,41,14.50
2011,05,22,12,42,14.50
2011,05,22,12,43,14.60
2011,05,22,12,44,14.60
2011,05,22,12,45,14.60
2011,05,22,12,46,14.60
2011,05,22,12,47,14.70
2011,05,22,12,48,14.80
2011,05,22,12,49,14.80
2011,05,22,12,50,14.90
2011,05,22,12,51,14.90
2011,05,22,12,52,15.00
2011,05,22,12,53,15.00
2011,05,22,12,54,14.90
2011,05,22,12,55,15.00
2011,05,22,12,56,15.00
2011,05,22,12,57,15.10
2011,05,22,12,58,15.10
2011,05,22,12,59,15.10
2011,05,22,13,00,15.10
2011,05,22,13,01,15.10
2011,05,22,13,02,15.10
2011,05,22,13,03,15.10
2011,05,22,13,04,15.20
2011,05,22,13,05,15.20
2011,05,22,13,06,15.30
2011,05,22,13,07,15.30
2011,05,22,13,08,15.30
2011,05,22,13,09,15.30
2011,05,22,13,10,15.30
2011,05,22,13,11,15.20
2011,05,22,13,12,15.20
2011,05,22,13,13,15.10
2011,05,22,13,14,15.20
2011,05,22,13,15,15.20
2011,05,22,13,16,15.20
2011,05,22,13,17,15.10
2011,05,22,13,18,15.00
2011,05,22,13,19,14.90
2011,05,22,13,20,14.90
2011,05,22,13,21,14.80
2011,05,22,13,22,14.70
2011,05,22,13,23,14.70
2011,05,22,13,24,14.70
2011,05,22,13,25,14.70
2011,05,22,13,26,14.70
2011,05,22,13,27,14.80
2011,05,22,13,28,14.80
2011,05,22,13,29,14.80
2011,05,22,13,30,14.80
2011,05,22,13,31,14.90
2011,05,22,13,32,15.00
2011,05,22,13,33,15.10
2011,05,22,13,34,15.30
2011,05,22,13,35,15.30
2011,05,22,13,36,15.50
2011,05,22,13,37,15.60
2011,05,22,13,38,15.60
2011,05,22,13,39,15.50
2011,05,22,13,40,15.50
2011,05,22,13,41,15.30
2011,05,22,13,42,15.30
2011,05,22,13,43,15.20
2011,05,22,13,44,15.20
2011,05,22,13,45,15.20
2011,05,22,13,46,15.20
2011,05,22,13,47,15.20
2011,05,22,13,48,15.20
2011,05,22,13,49,15.10
2011,05,22,13,50,15.10
2011,05,22,13,51,15.10
2011,05,22,13,52,15.10
2011,05,22,13,53,15.10
2011,05,22,13,54,15.10
2011,05,22,13,55,15.00
2011,05,22,13,56,15.00
2011,05,22,13,57,15.00
2011,05,22,13,58,14.90
2011,05,22,13,59,14.90
2011,05,22,14,00,14.90
2011,05,22,14,01,14.90
2011,05,22,14,02,14.90
2011,05,22,14,03,14.90
2011,05,22,14,04,15.00
2011,05,22,14,05,14.90
2011,05,22,14,06,14.80
2011,05,22,14,07,14.70
2011,05,22,14,08,14.60
2011,05,22,14,09,14.60
2011,05,22,14,10,14.50
2011,05,22,14,11,14.50
2011,05,22,14,12,14.40
2011,05,22,14,13,14.40
2011,05,22,14,14,14.40
2011,05,22,14,15,14.40
2011,05,22,14,16,14.30
2011,05,22,14,17,14.20
2011,05,22,14,18,14.10
2011,05,22,14,19,14.00
2011,05,22,14,20,14.00
2011,05,22,14,21,13.90
2011,05,22,14,22,13.90
2011,05,22,14,23,13.80
2011,05,22,14,24,13.80
2011,05,22,14,25,13.90
2011,05,22,14,26,13.90
2011,05,22,14,27,14.00
2011,05,22,14,28,14.00
2011,05,22,14,29,14.10
2011,05,22,14,30,14.10
2011,05,22,14,31,14.20
2011,05,22,14,32,14.20
2011,05,22,14,33,14.20
2011,05,22,14,34,14.20
2011,05,22,14,35,14.20
2011,05,22,14,36,14.20
2011,05,22,14,37,14.20
2011,05,22,14,38,14.30
2011,05,22,14,39,14.40
2011,05,22,14,40,14.40
2011,05,22,14,41,14.40
2011,05,22,14,42,14.40
2011,05,22,14,43,14.40
2011,05,22,14,44,14.40
2011,05,22,14,45,14.20
2011,05,22,14,46,14.20
2011,05,22,14,47,14.10
2011,05,22,14,48,14.10
2011,05,22,14,49,14.10
2011,05,22,14,50,14.10
2011,05,22,14,51,14.10
2011,05,22,14,52,14.10
2011,05,22,14,53,14.10
2011,05,22,14,54,14.10
2011,05,22,14,55,14.10
2011,05,22,14,56,14.10
2011,05,22,14,57,14.20
2011,05,22,14,58,14.20
2011,05,22,14,59,14.20
2011,05,22,15,00,14.20
2011,05,22,15,01,14.20
2011,05,22,15,02,14.20
2011,05,22,15,03,14.20
2011,05,22,15,04,14.20
2011,05,22,15,05,14.20
2011,05,22,15,06,14.20
2011,05,22,15,07,14.20
2011,05,22,15,08,14.10
2011,05,22,15,09,14.10
2011,05,22,15,10,14.10
2011,05,22,15,11,14.00
2011,05,22,15,12,14.00
2011,05,22,15,13,14.00
2011,05,22,15,14,14.00
2011,05,22,15,15,14.00
2011,05,22,15,16,13.90
2011,05,22,15,17,14.00
2011,05,22,15,18,14.00
2011,05,22,15,19,14.00
2011,05,22,15,20,14.00
2011,05,22,15,21,14.10
2011,05,22,15,22,14.20
2011,05,22,15,23,14.20
2011,05,22,15,24,14.20
2011,05,22,15,25,14.20
2011,05,22,15,26,14.20
2011,05,22,15,27,14.20
2011,05,22,15,28,14.20
2011,05,22,15,29,14.20
2011,05,22,15,30,14.10
2011,05,22,15,31,14.10
2011,05,22,15,32,14.20
2011,05,22,15,33,14.20
2011,05,22,15,34,14.30
2011,05,22,15,35,14.40
2011,05,22,15,36,14.40
2011,05,22,15,37,14.30
2011,05,22,15,38,14.30
2011,05,22,15,39,14.20
2011,05,22,15,40,14.10
2011,05,22,15,41,14.10
2011,05,22,15,42,14.00
2011,05,22,15,43,14.00
2011,05,22,15,44,14.00
2011,05,22,15,45,13.90
2011,05,22,15,46,13.90
2011,05,22,15,47,13.90
2011,05,22,15,48,13.80
2011,05,22,15,49,13.80
2011,05,22,15,50,13.80
2011,05,22,15,51,13.90
2011,05,22,15,52,13.90
2011,05,22,15,53,13.90
2011,05,22,15,54,14.00
2011,05,22,15,55,14.00
2011,05,22,15,56,14.10
2011,05,22,15,57,14.00
2011,05,22,15,58,14.00
2011,05,22,15,59,13.90
2011,05,22,16,00,13.90
2011,05,22,16,01,13.90
2011,05,22,16,02,13.90
2011,05,22,16,03,14.00
2011,05,22,16,04,14.00
2011,05,22,16,05,14.10
2011,05,22,16,06,14.20
2011,05,22,16,07,14.20
2011,05,22,16,08,14.20
2011,05,22,16,09,14.20
2011,05,22,16,10,14.20
2011,05,22,16,11,14.20
2011,05,22,16,12,14.20
2011,05,22,16,13,14.20
2011,05,22,16,14,14.20
2011,05,22,16,15,14.20
2011,05,22,16,16,14.20
2011,05,22,16,17,14.20
2011,05,22,16,18,14.30
2011,05,22,16,19,14.40
2011,05,22,16,20,14.50
2011,05,22,16,21,14.60
2011,05,22,16,22,14.70
2011,05,22,16,23,14.70
2011,05,22,16,24,14.70
2011,05,22,16,25,14.70
2011,05,22,16,26,14.80
2011,05,22,16,27,14.90
2011,05,22,16,28,14.90
2011,05,22,16,29,14.90
2011,05,22,16,30,14.90
2011,05,22,16,31,14.90
2011,05,22,16,32,14.90
2011,05,22,16,33,14.80
2011,05,22,16,34,14.80
2011,05,22,16,35,14.80
2011,05,22,16,36,14.90
2011,05,22,16,37,14.90
2011,05,22,16,38,14.90
2011,05,22,16,39,14.90
2011,05,22,16,40,14.80
2011,05,22,16,41,14.80
2011,05,22,16,42,14.80
2011,05,22,16,43,14.80
2011,05,22,16,44,14.80
2011,05,22,16,45,14.80
2011,05,22,16,46,14.80
2011,05,22,16,47,14.80
2011,05,22,16,48,14.90
2011,05,22,16,49,14.90
2011,05,22,16,50,14.90
2011,05,22,16,51,15.00
2011,05,22,16,52,15.00
2011,05,22,16,53,15.00
2011,05,22,16,54,15.00
2011,05,22,16,55,15.00
2011,05,22,16,56,14.90
2011,05,22,16,57,14.90
2011,05,22,16,58,14.90
2011,05,22,16,59,14.90
2011,05,22,17,00,14.90
2011,05,22,17,01,14.80
2011,05,22,17,02,14.90
2011,05,22,17,03,14.90
2011,05,22,17,04,15.00
2011,05,22,17,05,15.10
2011,05,22,17,06,15.10
2011,05,22,17,07,15.20
2011,05,22,17,08,15.30
2011,05,22,17,09,15.30
2011,05,22,17,10,15.30
2011,05,22,17,11,15.20
2011,05,22,17,12,15.20
2011,05,22,17,13,15.20
2011,05,22,17,14,15.10
2011,05,22,17,15,15.10
2011,05,22,17,16,15.20
2011,05,22,17,17,15.30
2011,05,22,17,18,15.30
2011,05,22,17,19,15.40
2011,05,22,17,20,15.40
2011,05,22,17,21,15.40
2011,05,22,17,22,15.40
2011,05,22,17,23,15.40
2011,05,22,17,24,15.40
2011,05,22,17,25,15.40
2011,05,22,17,26,15.50
2011,05,22,17,27,15.50
2011,05,22,17,28,15.40
2011,05,22,17,29,15.40
2011,05,22,17,30,15.40
2011,05,22,17,31,15.40
2011,05,22,17,32,15.30
2011,05,22,17,33,15.30
2011,05,22,17,34,15.30
2011,05,22,17,35,15.30
2011,05,22,17,36,15.20
2011,05,22,17,37,15.20
2011,05,22,17,38,15.10
2011,05,22,17,39,15.00
2011,05,22,17,40,14.90
2011,05,22,17,41,14.90
2011,05,22,17,42,14.80
2011,05,22,17,43,14.80
2011,05,22,17,44,14.80
2011,05,22,17,45,14.80
2011,05,22,17,46,14.80
2011,05,22,17,47,14.80
2011,05,22,17,48,14.80
2011,05,22,17,49,14.80
2011,05,22,17,50,14.70
2011,05,22,17,51,14.70
2011,05,22,17,52,14.60
2011,05,22,17,53,14.60
2011,05,22,17,54,14.60
2011,05,22,17,55,14.60
2011,05,22,17,56,14.60
2011,05,22,17,57,14.60
2011,05,22,17,58,14.60
2011,05,22,17,59,14.60
2011,05,22,18,00,14.60
2011,05,22,18,01,14.60
2011,05,22,18,02,14.60
2011,05,22,18,03,14.60
2011,05,22,18,04,14.60
2011,05,22,18,05,14.60
2011,05,22,18,06,14.60
2011,05,22,18,07,14.60
2011,05,22,18,08,14.60
2011,05,22,18,09,14.60
2011,05,22,18,10,14.60
2011,05,22,18,11,14.50
2011,05,22,18,12,14.50
2011,05,22,18,13,14.50
2011,05,22,18,14,14.40
2011,05,22,18,15,14.40
2011,05,22,18,16,14.30
2011,05,22,18,17,14.30
2011,05,22,18,18,14.30
2011,05,22,18,19,14.20
2011,05,22,18,20,14.20
2011,05,22,18,21,14.20
2011,05,22,18,22,14.20
2011,05,22,18,23,14.20
2011,05,22,18,24,14.20
2011,05,22,18,25,14.20
2011,05,22,18,26,14.20
2011,05,22,18,27,14.20
2011,05,22,18,28,14.20
2011,05,22,18,29,14.20
2011,05,22,18,30,14.20
2011,05,22,18,31,14.20
2011,05,22,18,32,14.30
2011,05,22,18,33,14.30
2011,05,22,18,34,14.30
2011,05,22,18,35,14.30
2011,05,22,18,36,14.30
2011,05,22,18,37,14.30
2011,05,22,18,38,14.30
2011,05,22,18,39,14.20
2011,05,22,18,40,14.20
2011,05,22,18,41,14.20
2011,05,22,18,42,14.10
2011,05,22,18,43,14.10
2011,05,22,18,44,14.00
2011,05,22,18,45,14.00
2011,05,22,18,46,14.00
2011,05,22,18,47,13.90
2011,05,22,18,48,13.90
2011,05,22,18,49,13.80
2011,05,22,18,50,13.80
2011,05,22,18,51,13.80
2011,05,22,18,52,13.70
2011,05,22,18,53,13.70
2011,05,22,18,54,13.70
2011,05,22,18,55,13.60
2011,05,22,18,56,13.60
2011,05,22,18,57,13.60
2011,05,22,18,58,13.60
2011,05,22,18,59,13.60
2011,05,22,19,00,13.50
2011,05,22,19,01,13.50
2011,05,22,19,02,13.50
2011,05,22,19,03,13.50
2011,05,22,19,04,13.40
2011,05,22,19,05,13.40
2011,05,22,19,06,13.40
2011,05,22,19,07,13.40
2011,05,22,19,08,13.30
2011,05,22,19,09,13.30
2011,05,22,19,10,13.30
2011,05,22,19,11,13.30
2011,05,22,19,12,13.30
2011,05,22,19,13,13.30
2011,05,22,19,14,13.30
2011,05,22,19,15,13.30
2011,05,22,19,16,13.30
2011,05,22,19,17,13.20
2011,05,22,19,18,13.20
2011,05,22,19,19,13.20
2011,05,22,19,20,13.20
2011,05,22,19,21,13.20
2011,05,22,19,22,13.10
2011,05,22,19,23,13.10
2011,05,22,19,24,13.10
2011,05,22,19,25,13.10
2011,05,22,19,26,13.00
2011,05,22,19,27,13.00
2011,05,22,19,28,13.00
2011,05,22,19,29,13.00
2011,05,22,19,30,13.00
2011,05,22,19,31,13.10
2011,05,22,19,32,13.10
2011,05,22,19,33,13.10
2011,05,22,19,34,13.10
2011,05,22,19,35,13.10
2011,05,22,19,36,13.20
2011,05,22,19,37,13.20
2011,05,22,19,38,13.20
2011,05,22,19,39,13.20
2011,05,22,19,40,13.20
2011,05,22,19,41,13.20
2011,05,22,19,42,13.20
2011,05,22,19,43,13.20
2011,05,22,19,44,13.10
2011,05,22,19,45,13.10
2011,05,22,19,46,13.10
2011,05,22,19,47,13.00
2011,05,22,19,48,13.00
2011,05,22,19,49,13.00
2011,05,22,19,50,13.00
2011,05,22,19,51,12.90
2011,05,22,19,52,12.90
2011,05,22,19,53,12.90
2011,05,22,19,54,12.80
2011,05,22,19,55,12.80
2011,05,22,19,56,12.80
2011,05,22,19,57,12.80
2011,05,22,19,58,12.80
2011,05,22,19,59,12.80
2011,05,22,20,00,12.70
2011,05,22,20,01,12.70
2011,05,22,20,02,12.60
2011,05,22,20,03,12.60
2011,05,22,20,04,12.50
2011,05,22,20,05,12.50
2011,05,22,20,06,12.50
2011,05,22,20,07,12.50
2011,05,22,20,08,12.40
2011,05,22,20,09,12.40
2011,05,22,20,10,12.40
2011,05,22,20,11,12.30
2011,05,22,20,12,12.30
2011,05,22,20,13,12.30
2011,05,22,20,14,12.30
2011,05,22,20,15,12.30
2011,05,22,20,16,12.30
2011,05,22,20,17,12.30